Powrót do katalogu

ATLAS 5 CENTAUR DEB

AktywnyHEO
NORAD 46604·DEBRIS·🇺🇸 United States

Wystrzelony Oct 17, 2018 z Cape Canaveral Space Force Station

Loading…

Następne Przeloty (najbliższe 24 godziny)

TLE

ŚwieżeSource: Space-Track

Epoka: Sep 12, 2026, 22:49 UTC

1 46604U 18079CC  26255.95070050 -.00000150  00000-0  00000-0 0  9998
2 46604  13.5543  46.9090 4592733 282.7899  31.2182  1.74538051 43434

Śledź ATLAS 5 CENTAUR DEB w czasie rzeczywistym z AllMySat

Download on the App Store